Retour au catalogue

SDA_1679

ActifSciencePO
NORAD 65989·PAYLOAD·🇺🇸 United States

Lancé Oct 15, 2025 depuis Vandenberg Space Force Base

Loading…

Prochains Passages (prochaines 24 heures)

TLE

FraisSource: Space-Track

Époque: Sep 14, 2026, 14:12 UTC

1 65989U 25230R   26257.59219012  .00000095  00000-0  74163-4 0  9999
2 65989  81.3022 128.7558 0003109 342.1391  17.9657 13.84860972 46190

Suivez SDA_1679 en temps réel avec AllMySat

Download on the App Store